Location: Bosmont
(49.7318°N, 3.8587°E)
Time: 09:39:56
(UTC+00:00)

BlueWalker 3 - Pass Details

Date: 08 February 2023
Orbit: 497 x 515 km, 53.2° (Epoch: 23 March)

Event Time Altitude Azimuth Distance (km) Brightness Sun altitude
Rises 18:33:12 0° 293° (WNW) 2,605 6.7 -16.8°
Reaches altitude 10° 18:35:23 10° 292° (WNW) 1,722 5.7 -17.2°
Maximum altitude 18:39:17 78° 206° (SSW) 525 2.0 -17.8°
Enters shadow 18:40:40 38° 127° (SE) 788 2.5 -18.0°
